Year,Month,Day,Hour,Minute,Value (Times are PST for temperature in C)
2015,01,16,00,00,7.10
2015,01,16,00,01,7.10
2015,01,16,00,02,7.10
2015,01,16,00,03,7.00
2015,01,16,00,04,7.00
2015,01,16,00,05,6.90
2015,01,16,00,06,6.90
2015,01,16,00,07,6.90
2015,01,16,00,08,6.90
2015,01,16,00,09,6.80
2015,01,16,00,10,6.80
2015,01,16,00,11,6.80
2015,01,16,00,12,6.70
2015,01,16,00,13,6.70
2015,01,16,00,14,6.70
2015,01,16,00,15,6.70
2015,01,16,00,16,6.70
2015,01,16,00,17,6.60
2015,01,16,00,18,6.60
2015,01,16,00,19,6.60
2015,01,16,00,20,6.60
2015,01,16,00,21,6.60
2015,01,16,00,22,6.60
2015,01,16,00,23,6.50
2015,01,16,00,24,6.50
2015,01,16,00,25,6.50
2015,01,16,00,26,6.50
2015,01,16,00,27,6.50
2015,01,16,00,28,6.40
2015,01,16,00,29,6.40
2015,01,16,00,30,6.40
2015,01,16,00,31,6.40
2015,01,16,00,32,6.40
2015,01,16,00,33,6.40
2015,01,16,00,34,6.40
2015,01,16,00,35,6.40
2015,01,16,00,36,6.40
2015,01,16,00,37,6.40
2015,01,16,00,38,6.40
2015,01,16,00,39,6.40
2015,01,16,00,40,6.40
2015,01,16,00,41,6.40
2015,01,16,00,42,6.40
2015,01,16,00,43,6.40
2015,01,16,00,44,6.40
2015,01,16,00,45,6.30
2015,01,16,00,46,6.30
2015,01,16,00,47,6.40
2015,01,16,00,48,6.30
2015,01,16,00,49,6.30
2015,01,16,00,50,6.30
2015,01,16,00,51,6.30
2015,01,16,00,52,6.30
2015,01,16,00,53,6.30
2015,01,16,00,54,6.30
2015,01,16,00,55,6.30
2015,01,16,00,56,6.30
2015,01,16,00,57,6.30
2015,01,16,00,58,6.30
2015,01,16,00,59,6.30
2015,01,16,01,00,6.30
2015,01,16,01,01,6.30
2015,01,16,01,02,6.30
2015,01,16,01,03,6.30
2015,01,16,01,04,6.30
2015,01,16,01,05,6.30
2015,01,16,01,06,6.30
2015,01,16,01,07,6.20
2015,01,16,01,08,6.20
2015,01,16,01,09,6.20
2015,01,16,01,10,6.20
2015,01,16,01,11,6.20
2015,01,16,01,12,6.20
2015,01,16,01,13,6.20
2015,01,16,01,14,6.20
2015,01,16,01,15,6.20
2015,01,16,01,16,6.20
2015,01,16,01,17,6.20
2015,01,16,01,18,6.20
2015,01,16,01,19,6.20
2015,01,16,01,20,6.20
2015,01,16,01,21,6.20
2015,01,16,01,22,6.20
2015,01,16,01,23,6.20
2015,01,16,01,24,6.20
2015,01,16,01,25,6.20
2015,01,16,01,26,6.20
2015,01,16,01,27,6.10
2015,01,16,01,28,6.10
2015,01,16,01,29,6.10
2015,01,16,01,30,6.10
2015,01,16,01,31,6.10
2015,01,16,01,32,6.10
2015,01,16,01,33,6.10
2015,01,16,01,34,6.10
2015,01,16,01,35,6.10
2015,01,16,01,36,6.10
2015,01,16,01,37,6.10
2015,01,16,01,38,6.10
2015,01,16,01,39,6.00
2015,01,16,01,40,6.00
2015,01,16,01,41,6.00
2015,01,16,01,42,6.00
2015,01,16,01,43,6.00
2015,01,16,01,44,6.00
2015,01,16,01,45,6.00
2015,01,16,01,46,6.00
2015,01,16,01,47,6.00
2015,01,16,01,48,6.00
2015,01,16,01,49,6.00
2015,01,16,01,50,5.90
2015,01,16,01,51,5.90
2015,01,16,01,52,5.90
2015,01,16,01,53,5.90
2015,01,16,01,54,5.90
2015,01,16,01,55,5.90
2015,01,16,01,56,5.90
2015,01,16,01,57,5.90
2015,01,16,01,58,5.90
2015,01,16,01,59,5.90
2015,01,16,02,00,5.90
2015,01,16,02,01,5.90
2015,01,16,02,02,5.90
2015,01,16,02,03,5.80
2015,01,16,02,04,5.80
2015,01,16,02,05,5.80
2015,01,16,02,06,5.80
2015,01,16,02,07,5.80
2015,01,16,02,08,5.80
2015,01,16,02,09,5.80
2015,01,16,02,10,5.80
2015,01,16,02,11,5.80
2015,01,16,02,12,5.80
2015,01,16,02,13,5.80
2015,01,16,02,14,5.80
2015,01,16,02,15,5.80
2015,01,16,02,16,5.80
2015,01,16,02,17,5.70
2015,01,16,02,18,5.70
2015,01,16,02,19,5.70
2015,01,16,02,20,5.70
2015,01,16,02,21,5.70
2015,01,16,02,22,5.70
2015,01,16,02,23,5.70
2015,01,16,02,24,5.70
2015,01,16,02,25,5.70
2015,01,16,02,26,5.70
2015,01,16,02,27,5.70
2015,01,16,02,28,5.70
2015,01,16,02,29,5.70
2015,01,16,02,30,5.70
2015,01,16,02,31,5.70
2015,01,16,02,32,5.70
2015,01,16,02,33,5.70
2015,01,16,02,34,5.70
2015,01,16,02,35,5.70
2015,01,16,02,36,5.70
2015,01,16,02,37,5.80
2015,01,16,02,38,5.80
2015,01,16,02,39,5.70
2015,01,16,02,40,5.70
2015,01,16,02,41,5.70
2015,01,16,02,42,5.70
2015,01,16,02,43,5.70
2015,01,16,02,44,5.70
2015,01,16,02,45,5.70
2015,01,16,02,46,5.70
2015,01,16,02,47,5.70
2015,01,16,02,48,5.70
2015,01,16,02,49,5.70
2015,01,16,02,50,5.70
2015,01,16,02,51,5.70
2015,01,16,02,52,5.70
2015,01,16,02,53,5.70
2015,01,16,02,54,5.70
2015,01,16,02,55,5.70
2015,01,16,02,56,5.70
2015,01,16,02,57,5.70
2015,01,16,02,58,5.70
2015,01,16,02,59,5.70
2015,01,16,03,00,5.70
2015,01,16,03,01,5.70
2015,01,16,03,02,5.70
2015,01,16,03,03,5.70
2015,01,16,03,04,5.70
2015,01,16,03,05,5.70
2015,01,16,03,06,5.70
2015,01,16,03,07,5.70
2015,01,16,03,08,5.70
2015,01,16,03,09,5.70
2015,01,16,03,10,5.70
2015,01,16,03,11,5.70
2015,01,16,03,12,5.70
2015,01,16,03,13,5.70
2015,01,16,03,14,5.70
2015,01,16,03,15,5.70
2015,01,16,03,16,5.70
2015,01,16,03,17,5.70
2015,01,16,03,18,5.70
2015,01,16,03,19,5.60
2015,01,16,03,20,5.60
2015,01,16,03,21,5.60
2015,01,16,03,22,5.60
2015,01,16,03,23,5.60
2015,01,16,03,24,5.60
2015,01,16,03,25,5.60
2015,01,16,03,26,5.60
2015,01,16,03,27,5.60
2015,01,16,03,28,5.60
2015,01,16,03,29,5.60
2015,01,16,03,30,5.60
2015,01,16,03,31,5.60
2015,01,16,03,32,5.60
2015,01,16,03,33,5.60
2015,01,16,03,34,5.60
2015,01,16,03,35,5.60
2015,01,16,03,36,5.60
2015,01,16,03,37,5.60
2015,01,16,03,38,5.60
2015,01,16,03,39,5.60
2015,01,16,03,40,5.60
2015,01,16,03,41,5.60
2015,01,16,03,42,5.60
2015,01,16,03,43,5.60
2015,01,16,03,44,5.50
2015,01,16,03,45,5.50
2015,01,16,03,46,5.50
2015,01,16,03,47,5.50
2015,01,16,03,48,5.50
2015,01,16,03,49,5.40
2015,01,16,03,50,5.40
2015,01,16,03,51,5.40
2015,01,16,03,52,5.40
2015,01,16,03,53,5.40
2015,01,16,03,54,5.40
2015,01,16,03,55,5.40
2015,01,16,03,56,5.40
2015,01,16,03,57,5.40
2015,01,16,03,58,5.40
2015,01,16,03,59,5.40
2015,01,16,04,00,5.30
2015,01,16,04,01,5.30
2015,01,16,04,02,5.30
2015,01,16,04,03,5.30
2015,01,16,04,04,5.30
2015,01,16,04,05,5.30
2015,01,16,04,06,5.30
2015,01,16,04,07,5.30
2015,01,16,04,08,5.30
2015,01,16,04,09,5.30
2015,01,16,04,10,5.30
2015,01,16,04,11,5.30
2015,01,16,04,12,5.20
2015,01,16,04,13,5.20
2015,01,16,04,14,5.20
2015,01,16,04,15,5.20
2015,01,16,04,16,5.20
2015,01,16,04,17,5.20
2015,01,16,04,18,5.20
2015,01,16,04,19,5.20
2015,01,16,04,20,5.10
2015,01,16,04,21,5.10
2015,01,16,04,22,5.10
2015,01,16,04,23,5.10
2015,01,16,04,24,5.10
2015,01,16,04,25,5.10
2015,01,16,04,26,5.00
2015,01,16,04,27,5.00
2015,01,16,04,28,4.90
2015,01,16,04,29,4.90
2015,01,16,04,30,4.90
2015,01,16,04,31,4.80
2015,01,16,04,32,4.80
2015,01,16,04,33,4.80
2015,01,16,04,34,4.70
2015,01,16,04,35,4.70
2015,01,16,04,36,4.70
2015,01,16,04,37,4.60
2015,01,16,04,38,4.60
2015,01,16,04,39,4.50
2015,01,16,04,40,4.50
2015,01,16,04,41,4.50
2015,01,16,04,42,4.40
2015,01,16,04,43,4.40
2015,01,16,04,44,4.40
2015,01,16,04,45,4.30
2015,01,16,04,46,4.30
2015,01,16,04,47,4.30
2015,01,16,04,48,4.30
2015,01,16,04,49,4.30
2015,01,16,04,50,4.30
2015,01,16,04,51,4.20
2015,01,16,04,52,4.20
2015,01,16,04,53,4.20
2015,01,16,04,54,4.20
2015,01,16,04,55,4.20
2015,01,16,04,56,4.10
2015,01,16,04,57,4.10
2015,01,16,04,58,4.00
2015,01,16,04,59,4.00
2015,01,16,05,00,3.90
2015,01,16,05,01,3.90
2015,01,16,05,02,3.90
2015,01,16,05,03,3.80
2015,01,16,05,04,3.80
2015,01,16,05,05,3.80
2015,01,16,05,06,3.80
2015,01,16,05,07,3.80
2015,01,16,05,08,3.80
2015,01,16,05,09,3.70
2015,01,16,05,10,3.70
2015,01,16,05,11,3.70
2015,01,16,05,12,3.70
2015,01,16,05,13,3.60
2015,01,16,05,14,3.60
2015,01,16,05,15,3.60
2015,01,16,05,16,3.60
2015,01,16,05,17,3.60
2015,01,16,05,18,3.50
2015,01,16,05,19,3.50
2015,01,16,05,20,3.40
2015,01,16,05,21,3.40
2015,01,16,05,22,3.40
2015,01,16,05,23,3.40
2015,01,16,05,24,3.30
2015,01,16,05,25,3.30
2015,01,16,05,26,3.30
2015,01,16,05,27,3.30
2015,01,16,05,28,3.20
2015,01,16,05,29,3.20
2015,01,16,05,30,3.20
2015,01,16,05,31,3.20
2015,01,16,05,32,3.20
2015,01,16,05,33,3.20
2015,01,16,05,34,3.20
2015,01,16,05,35,3.20
2015,01,16,05,36,3.20
2015,01,16,05,37,3.20
2015,01,16,05,38,3.20
2015,01,16,05,39,3.20
2015,01,16,05,40,3.20
2015,01,16,05,41,3.10
2015,01,16,05,42,3.10
2015,01,16,05,43,3.10
2015,01,16,05,44,3.10
2015,01,16,05,45,3.00
2015,01,16,05,46,3.00
2015,01,16,05,47,2.90
2015,01,16,05,48,2.90
2015,01,16,05,49,2.90
2015,01,16,05,50,2.90
2015,01,16,05,51,2.90
2015,01,16,05,52,2.80
2015,01,16,05,53,2.80
2015,01,16,05,54,2.80
2015,01,16,05,55,2.80
2015,01,16,05,56,2.70
2015,01,16,05,57,2.70
2015,01,16,05,58,2.70
2015,01,16,05,59,2.70
2015,01,16,06,00,2.70
2015,01,16,06,01,2.70
2015,01,16,06,02,2.70
2015,01,16,06,03,2.60
2015,01,16,06,04,2.60
2015,01,16,06,05,2.60
2015,01,16,06,06,2.60
2015,01,16,06,07,2.60
2015,01,16,06,08,2.60
2015,01,16,06,09,2.50
2015,01,16,06,10,2.50
2015,01,16,06,11,2.50
2015,01,16,06,12,2.50
2015,01,16,06,13,2.50
2015,01,16,06,14,2.60
2015,01,16,06,15,2.60
2015,01,16,06,16,2.60
2015,01,16,06,17,2.60
2015,01,16,06,18,2.60
2015,01,16,06,19,2.60
2015,01,16,06,20,2.60
2015,01,16,06,21,2.60
2015,01,16,06,22,2.60
2015,01,16,06,23,2.60
2015,01,16,06,24,2.60
2015,01,16,06,25,2.60
2015,01,16,06,26,2.70
2015,01,16,06,27,2.70
2015,01,16,06,28,2.70
2015,01,16,06,29,2.70
2015,01,16,06,30,2.70
2015,01,16,06,31,2.70
2015,01,16,06,32,2.60
2015,01,16,06,33,2.60
2015,01,16,06,34,2.60
2015,01,16,06,35,2.50
2015,01,16,06,36,2.50
2015,01,16,06,37,2.50
2015,01,16,06,38,2.40
2015,01,16,06,39,2.40
2015,01,16,06,40,2.40
2015,01,16,06,41,2.30
2015,01,16,06,42,2.30
2015,01,16,06,43,2.30
2015,01,16,06,44,2.30
2015,01,16,06,45,2.20
2015,01,16,06,46,2.20
2015,01,16,06,47,2.20
2015,01,16,06,48,2.20
2015,01,16,06,49,2.20
2015,01,16,06,50,2.20
2015,01,16,06,51,2.20
2015,01,16,06,52,2.20
2015,01,16,06,53,2.20
2015,01,16,06,54,2.20
2015,01,16,06,55,2.20
2015,01,16,06,56,2.20
2015,01,16,06,57,2.20
2015,01,16,06,58,2.20
2015,01,16,06,59,2.10
2015,01,16,07,00,2.10
2015,01,16,07,01,2.10
2015,01,16,07,02,2.10
2015,01,16,07,03,2.10
2015,01,16,07,04,2.10
2015,01,16,07,05,2.10
2015,01,16,07,06,2.10
2015,01,16,07,07,2.10
2015,01,16,07,08,2.10
2015,01,16,07,09,2.10
2015,01,16,07,10,2.10
2015,01,16,07,11,2.10
2015,01,16,07,12,2.10
2015,01,16,07,13,2.10
2015,01,16,07,14,2.10
2015,01,16,07,15,2.10
2015,01,16,07,16,2.10
2015,01,16,07,17,2.10
2015,01,16,07,18,2.10
2015,01,16,07,19,2.00
2015,01,16,07,20,2.00
2015,01,16,07,21,2.00
2015,01,16,07,22,2.00
2015,01,16,07,23,2.10
2015,01,16,07,24,2.10
2015,01,16,07,25,2.10
2015,01,16,07,26,2.20
2015,01,16,07,27,2.20
2015,01,16,07,28,2.20
2015,01,16,07,29,2.30
2015,01,16,07,30,2.30
2015,01,16,07,31,2.30
2015,01,16,07,32,2.30
2015,01,16,07,33,2.30
2015,01,16,07,34,2.30
2015,01,16,07,35,2.30
2015,01,16,07,36,2.30
2015,01,16,07,37,2.20
2015,01,16,07,38,2.20
2015,01,16,07,39,2.20
2015,01,16,07,40,2.10
2015,01,16,07,41,2.10
2015,01,16,07,42,2.00
2015,01,16,07,43,2.00
2015,01,16,07,44,1.90
2015,01,16,07,45,1.90
2015,01,16,07,46,1.90
2015,01,16,07,47,1.80
2015,01,16,07,48,1.80
2015,01,16,07,49,1.80
2015,01,16,07,50,1.80
2015,01,16,07,51,1.80
2015,01,16,07,52,1.80
2015,01,16,07,53,1.80
2015,01,16,07,54,1.80
2015,01,16,07,55,1.80
2015,01,16,07,56,1.80
2015,01,16,07,57,1.80
2015,01,16,07,58,1.80
2015,01,16,07,59,1.70
2015,01,16,08,00,1.70
2015,01,16,08,01,1.70
2015,01,16,08,02,1.70
2015,01,16,08,03,1.70
2015,01,16,08,04,1.70
2015,01,16,08,05,1.60
2015,01,16,08,06,1.60
2015,01,16,08,07,1.60
2015,01,16,08,08,1.60
2015,01,16,08,09,1.60
2015,01,16,08,10,1.60
2015,01,16,08,11,1.60
2015,01,16,08,12,1.60
2015,01,16,08,13,1.60
2015,01,16,08,14,1.60
2015,01,16,08,15,1.70
2015,01,16,08,16,1.70
2015,01,16,08,17,1.70
2015,01,16,08,18,1.80
2015,01,16,08,19,1.80
2015,01,16,08,20,1.80
2015,01,16,08,21,1.80
2015,01,16,08,22,1.80
2015,01,16,08,23,1.90
2015,01,16,08,24,1.90
2015,01,16,08,25,2.00
2015,01,16,08,26,2.00
2015,01,16,08,27,2.10
2015,01,16,08,28,2.10
2015,01,16,08,29,2.10
2015,01,16,08,30,2.10
2015,01,16,08,31,2.20
2015,01,16,08,32,2.10
2015,01,16,08,33,2.10
2015,01,16,08,34,2.10
2015,01,16,08,35,2.10
2015,01,16,08,36,2.10
2015,01,16,08,37,2.10
2015,01,16,08,38,2.10
2015,01,16,08,39,2.10
2015,01,16,08,40,2.10
2015,01,16,08,41,2.20
2015,01,16,08,42,2.30
2015,01,16,08,43,2.30
2015,01,16,08,44,2.40
2015,01,16,08,45,2.50
2015,01,16,08,46,2.50
2015,01,16,08,47,2.50
2015,01,16,08,48,2.50
2015,01,16,08,49,2.40
2015,01,16,08,50,2.40
2015,01,16,08,51,2.40
2015,01,16,08,52,2.40
2015,01,16,08,53,2.40
2015,01,16,08,54,2.30
2015,01,16,08,55,2.30
2015,01,16,08,56,2.30
2015,01,16,08,57,2.30
2015,01,16,08,58,2.30
2015,01,16,08,59,2.30
2015,01,16,09,00,2.30
2015,01,16,09,01,2.40
2015,01,16,09,02,2.40
2015,01,16,09,03,2.40
2015,01,16,09,04,2.40
2015,01,16,09,05,2.40
2015,01,16,09,06,2.50
2015,01,16,09,07,2.50
2015,01,16,09,08,2.50
2015,01,16,09,09,2.50
2015,01,16,09,10,2.50
2015,01,16,09,11,2.50
2015,01,16,09,12,2.50
2015,01,16,09,13,2.50
2015,01,16,09,14,2.50
2015,01,16,09,15,2.50
2015,01,16,09,16,2.50
2015,01,16,09,17,2.50
2015,01,16,09,18,2.50
2015,01,16,09,19,2.50
2015,01,16,09,20,2.50
2015,01,16,09,21,2.50
2015,01,16,09,22,2.50
2015,01,16,09,23,2.50
2015,01,16,09,24,2.50
2015,01,16,09,25,2.50
2015,01,16,09,26,2.50
2015,01,16,09,27,2.50
2015,01,16,09,28,2.50
2015,01,16,09,29,2.50
2015,01,16,09,30,2.50
2015,01,16,09,31,2.50
2015,01,16,09,32,2.60
2015,01,16,09,33,2.60
2015,01,16,09,34,2.60
2015,01,16,09,35,2.60
2015,01,16,09,36,2.70
2015,01,16,09,37,2.70
2015,01,16,09,38,2.80
2015,01,16,09,39,2.80
2015,01,16,09,40,2.90
2015,01,16,09,41,2.90
2015,01,16,09,42,3.00
2015,01,16,09,43,3.00
2015,01,16,09,44,3.00
2015,01,16,09,45,3.00
2015,01,16,09,46,3.00
2015,01,16,09,47,3.10
2015,01,16,09,48,3.10
2015,01,16,09,49,3.10
2015,01,16,09,50,3.10
2015,01,16,09,51,3.20
2015,01,16,09,52,3.20
2015,01,16,09,53,3.20
2015,01,16,09,54,3.20
2015,01,16,09,55,3.30
2015,01,16,09,56,3.30
2015,01,16,09,57,3.40
2015,01,16,09,58,3.40
2015,01,16,09,59,3.50
2015,01,16,10,00,3.60
2015,01,16,10,01,3.70
2015,01,16,10,02,3.80
2015,01,16,10,03,3.80
2015,01,16,10,04,3.90
2015,01,16,10,05,3.90
2015,01,16,10,06,4.00
2015,01,16,10,07,4.00
2015,01,16,10,08,4.10
2015,01,16,10,09,4.10
2015,01,16,10,10,4.10
2015,01,16,10,11,4.20
2015,01,16,10,12,4.20
2015,01,16,10,13,4.30
2015,01,16,10,14,4.30
2015,01,16,10,15,4.40
2015,01,16,10,16,4.50
2015,01,16,10,17,4.50
2015,01,16,10,18,4.60
2015,01,16,10,19,4.60
2015,01,16,10,20,4.70
2015,01,16,10,21,4.70
2015,01,16,10,22,4.70
2015,01,16,10,23,4.70
2015,01,16,10,24,4.80
2015,01,16,10,25,4.80
2015,01,16,10,26,4.80
2015,01,16,10,27,4.80
2015,01,16,10,28,4.80
2015,01,16,10,29,4.80
2015,01,16,10,30,4.80
2015,01,16,10,31,4.80
2015,01,16,10,32,4.80
2015,01,16,10,33,4.80
2015,01,16,10,34,4.90
2015,01,16,10,35,4.90
2015,01,16,10,36,4.90
2015,01,16,10,37,5.00
2015,01,16,10,38,5.00
2015,01,16,10,39,5.10
2015,01,16,10,40,5.10
2015,01,16,10,41,5.10
2015,01,16,10,42,5.10
2015,01,16,10,43,5.10
2015,01,16,10,44,5.20
2015,01,16,10,45,5.20
2015,01,16,10,46,5.20
2015,01,16,10,47,5.20
2015,01,16,10,48,5.20
2015,01,16,10,49,5.20
2015,01,16,10,50,5.20
2015,01,16,10,51,5.20
2015,01,16,10,52,5.30
2015,01,16,10,53,5.30
2015,01,16,10,54,5.30
2015,01,16,10,55,5.40
2015,01,16,10,56,5.40
2015,01,16,10,57,5.50
2015,01,16,10,58,5.60
2015,01,16,10,59,5.60
2015,01,16,11,00,5.70
2015,01,16,11,01,5.80
2015,01,16,11,02,5.80
2015,01,16,11,03,5.90
2015,01,16,11,04,6.00
2015,01,16,11,05,6.00
2015,01,16,11,06,6.10
2015,01,16,11,07,6.10
2015,01,16,11,08,6.10
2015,01,16,11,09,6.20
2015,01,16,11,10,6.20
2015,01,16,11,11,6.20
2015,01,16,11,12,6.30
2015,01,16,11,13,6.30
2015,01,16,11,14,6.40
2015,01,16,11,15,6.50
2015,01,16,11,16,6.50
2015,01,16,11,17,6.60
2015,01,16,11,18,6.60
2015,01,16,11,19,6.60
2015,01,16,11,20,6.60
2015,01,16,11,21,6.60
2015,01,16,11,22,6.70
2015,01,16,11,23,6.70
2015,01,16,11,24,6.80
2015,01,16,11,25,6.80
2015,01,16,11,26,6.90
2015,01,16,11,27,7.00
2015,01,16,11,28,7.00
2015,01,16,11,29,7.10
2015,01,16,11,30,7.20
2015,01,16,11,31,7.20
2015,01,16,11,32,7.20
2015,01,16,11,33,7.30
2015,01,16,11,34,7.30
2015,01,16,11,35,7.30
2015,01,16,11,36,7.30
2015,01,16,11,37,7.30
2015,01,16,11,38,7.30
2015,01,16,11,39,7.30
2015,01,16,11,40,7.30
2015,01,16,11,41,7.30
2015,01,16,11,42,7.40
2015,01,16,11,43,7.50
2015,01,16,11,44,7.60
2015,01,16,11,45,7.60
2015,01,16,11,46,7.70
2015,01,16,11,47,7.80
2015,01,16,11,48,7.90
2015,01,16,11,49,7.90
2015,01,16,11,50,8.00
2015,01,16,11,51,8.10
2015,01,16,11,52,8.10
2015,01,16,11,53,8.20
2015,01,16,11,54,8.20
2015,01,16,11,55,8.20
2015,01,16,11,56,8.30
2015,01,16,11,57,8.30
2015,01,16,11,58,8.30
2015,01,16,11,59,8.30
2015,01,16,12,00,8.30
2015,01,16,12,01,8.40
2015,01,16,12,02,8.40
2015,01,16,12,03,8.50
2015,01,16,12,04,8.50
2015,01,16,12,05,8.50
2015,01,16,12,06,8.60
2015,01,16,12,07,8.60
2015,01,16,12,08,8.70
2015,01,16,12,09,8.70
2015,01,16,12,10,8.70
2015,01,16,12,11,8.80
2015,01,16,12,12,8.80
2015,01,16,12,13,8.80
2015,01,16,12,14,8.80
2015,01,16,12,15,8.80
2015,01,16,12,16,8.80
2015,01,16,12,17,8.80
2015,01,16,12,18,8.80
2015,01,16,12,19,8.80
2015,01,16,12,20,8.80
2015,01,16,12,21,8.80
2015,01,16,12,22,8.80
2015,01,16,12,23,8.80
2015,01,16,12,24,8.80
2015,01,16,12,25,8.80
2015,01,16,12,26,8.80
2015,01,16,12,27,8.80
2015,01,16,12,28,8.80
2015,01,16,12,29,8.80
2015,01,16,12,30,8.80
2015,01,16,12,31,8.80
2015,01,16,12,32,8.80
2015,01,16,12,33,8.80
2015,01,16,12,34,8.80
2015,01,16,12,35,8.80
2015,01,16,12,36,8.80
2015,01,16,12,37,8.80
2015,01,16,12,38,8.80
2015,01,16,12,39,8.80
2015,01,16,12,40,8.80
2015,01,16,12,41,8.80
2015,01,16,12,42,8.80
2015,01,16,12,43,8.80
2015,01,16,12,44,8.80
2015,01,16,12,45,8.90
2015,01,16,12,46,8.90
2015,01,16,12,47,8.90
2015,01,16,12,48,9.00
2015,01,16,12,49,9.00
2015,01,16,12,50,9.10
2015,01,16,12,51,9.10
2015,01,16,12,52,9.10
2015,01,16,12,53,9.10
2015,01,16,12,54,9.10
2015,01,16,12,55,9.10
2015,01,16,12,56,9.10
2015,01,16,12,57,9.10
2015,01,16,12,58,9.10
2015,01,16,12,59,9.00
2015,01,16,13,00,9.00
2015,01,16,13,01,9.00
2015,01,16,13,02,9.00
2015,01,16,13,03,8.90
2015,01,16,13,04,8.90
2015,01,16,13,05,8.90
2015,01,16,13,06,8.90
2015,01,16,13,07,8.90
2015,01,16,13,08,8.90
2015,01,16,13,09,8.90
2015,01,16,13,10,8.90
2015,01,16,13,11,8.90
2015,01,16,13,12,8.90
2015,01,16,13,13,8.90
2015,01,16,13,14,8.90
2015,01,16,13,15,8.90
2015,01,16,13,16,8.90
2015,01,16,13,17,8.90
2015,01,16,13,18,8.90
2015,01,16,13,19,8.90
2015,01,16,13,20,8.90
2015,01,16,13,21,8.90
2015,01,16,13,22,8.90
2015,01,16,13,23,8.80
2015,01,16,13,24,8.80
2015,01,16,13,25,8.80
2015,01,16,13,26,8.80
2015,01,16,13,27,8.80
2015,01,16,13,28,8.80
2015,01,16,13,29,8.80
2015,01,16,13,30,8.80
2015,01,16,13,31,8.80
2015,01,16,13,32,8.80
2015,01,16,13,33,8.80
2015,01,16,13,34,8.80
2015,01,16,13,35,8.80
2015,01,16,13,36,8.80
2015,01,16,13,37,8.80
2015,01,16,13,38,8.80
2015,01,16,13,39,8.80
2015,01,16,13,40,8.80
2015,01,16,13,41,8.80
2015,01,16,13,42,8.80
2015,01,16,13,43,8.80
2015,01,16,13,44,8.80
2015,01,16,13,45,8.80
2015,01,16,13,46,8.80
2015,01,16,13,47,8.80
2015,01,16,13,48,8.80
2015,01,16,13,49,8.80
2015,01,16,13,50,8.80
2015,01,16,13,51,8.80
2015,01,16,13,52,8.80
2015,01,16,13,53,8.70
2015,01,16,13,54,8.70
2015,01,16,13,55,8.70
2015,01,16,13,56,8.70
2015,01,16,13,57,8.70
2015,01,16,13,58,8.70
2015,01,16,13,59,8.70
2015,01,16,14,00,8.70
2015,01,16,14,01,8.70
2015,01,16,14,02,8.70
2015,01,16,14,03,8.70
2015,01,16,14,04,8.70
2015,01,16,14,05,8.70
2015,01,16,14,06,8.70
2015,01,16,14,07,8.70
2015,01,16,14,08,8.70
2015,01,16,14,09,8.70
2015,01,16,14,10,8.70
2015,01,16,14,11,8.80
2015,01,16,14,12,8.80
2015,01,16,14,13,8.80
2015,01,16,14,14,8.80
2015,01,16,14,15,8.80
2015,01,16,14,16,8.90
2015,01,16,14,17,8.90
2015,01,16,14,18,8.90
2015,01,16,14,19,8.90
2015,01,16,14,20,8.90
2015,01,16,14,21,9.00
2015,01,16,14,22,9.00
2015,01,16,14,23,9.00
2015,01,16,14,24,9.00
2015,01,16,14,25,9.10
2015,01,16,14,26,9.10
2015,01,16,14,27,9.10
2015,01,16,14,28,9.10
2015,01,16,14,29,9.10
2015,01,16,14,30,9.20
2015,01,16,14,31,9.20
2015,01,16,14,32,9.20
2015,01,16,14,33,9.20
2015,01,16,14,34,9.20
2015,01,16,14,35,9.20
2015,01,16,14,36,9.20
2015,01,16,14,37,9.20
2015,01,16,14,38,9.20
2015,01,16,14,39,9.20
2015,01,16,14,40,9.20
2015,01,16,14,41,9.20
2015,01,16,14,42,9.30
2015,01,16,14,43,9.30
2015,01,16,14,44,9.20
2015,01,16,14,45,9.20
2015,01,16,14,46,9.20
2015,01,16,14,47,9.20
2015,01,16,14,48,9.20
2015,01,16,14,49,9.20
2015,01,16,14,50,9.20
2015,01,16,14,51,9.20
2015,01,16,14,52,9.20
2015,01,16,14,53,9.20
2015,01,16,14,54,9.20
2015,01,16,14,55,9.20
2015,01,16,14,56,9.20
2015,01,16,14,57,9.20
2015,01,16,14,58,9.20
2015,01,16,14,59,9.20
2015,01,16,15,00,9.20
2015,01,16,15,01,9.20
2015,01,16,15,02,9.20
2015,01,16,15,03,9.20
2015,01,16,15,04,9.20
2015,01,16,15,05,9.20
2015,01,16,15,06,9.20
2015,01,16,15,07,9.20
2015,01,16,15,08,9.20
2015,01,16,15,09,9.20
2015,01,16,15,10,9.20
2015,01,16,15,11,9.20
2015,01,16,15,12,9.20
2015,01,16,15,13,9.20
2015,01,16,15,14,9.20
2015,01,16,15,15,9.20
2015,01,16,15,16,9.20
2015,01,16,15,17,9.20
2015,01,16,15,18,9.20
2015,01,16,15,19,9.20
2015,01,16,15,20,9.20
2015,01,16,15,21,9.20
2015,01,16,15,22,9.20
2015,01,16,15,23,9.20
2015,01,16,15,24,9.20
2015,01,16,15,25,9.20
2015,01,16,15,26,9.20
2015,01,16,15,27,9.20
2015,01,16,15,28,9.20
2015,01,16,15,29,9.20
2015,01,16,15,30,9.20
2015,01,16,15,31,9.20
2015,01,16,15,32,9.20
2015,01,16,15,33,9.20
2015,01,16,15,34,9.20
2015,01,16,15,35,9.20
2015,01,16,15,36,9.20
2015,01,16,15,37,9.20
2015,01,16,15,38,9.20
2015,01,16,15,39,9.20
2015,01,16,15,40,9.20
2015,01,16,15,41,9.10
2015,01,16,15,42,9.10
2015,01,16,15,43,9.10
2015,01,16,15,44,9.10
2015,01,16,15,45,9.10
2015,01,16,15,46,9.10
2015,01,16,15,47,9.00
2015,01,16,15,48,9.00
2015,01,16,15,49,9.00
2015,01,16,15,50,8.90
2015,01,16,15,51,8.90
2015,01,16,15,52,8.90
2015,01,16,15,53,8.80
2015,01,16,15,54,8.80
2015,01,16,15,55,8.80
2015,01,16,15,56,8.80
2015,01,16,15,57,8.80
2015,01,16,15,58,8.80
2015,01,16,15,59,8.70
2015,01,16,16,00,8.70
2015,01,16,16,01,8.70
2015,01,16,16,02,8.70
2015,01,16,16,03,8.60
2015,01,16,16,04,8.60
2015,01,16,16,05,8.50
2015,01,16,16,06,8.50
2015,01,16,16,07,8.40
2015,01,16,16,08,8.40
2015,01,16,16,09,8.30
2015,01,16,16,10,8.30
2015,01,16,16,11,8.30
2015,01,16,16,12,8.20
2015,01,16,16,13,8.20
2015,01,16,16,14,8.20
2015,01,16,16,15,8.10
2015,01,16,16,16,8.10
2015,01,16,16,17,8.10
2015,01,16,16,18,8.00
2015,01,16,16,19,8.00
2015,01,16,16,20,7.90
2015,01,16,16,21,7.90
2015,01,16,16,22,7.90
2015,01,16,16,23,7.80
2015,01,16,16,24,7.80
2015,01,16,16,25,7.70
2015,01,16,16,26,7.70
2015,01,16,16,27,7.70
2015,01,16,16,28,7.60
2015,01,16,16,29,7.60
2015,01,16,16,30,7.50
2015,01,16,16,31,7.50
2015,01,16,16,32,7.40
2015,01,16,16,33,7.40
2015,01,16,16,34,7.40
2015,01,16,16,35,7.30
2015,01,16,16,36,7.30
2015,01,16,16,37,7.20
2015,01,16,16,38,7.20
2015,01,16,16,39,7.10
2015,01,16,16,40,7.10
2015,01,16,16,41,7.10
2015,01,16,16,42,7.00
2015,01,16,16,43,7.00
2015,01,16,16,44,6.90
2015,01,16,16,45,6.90
2015,01,16,16,46,6.80
2015,01,16,16,47,6.80
2015,01,16,16,48,6.80
2015,01,16,16,49,6.70
2015,01,16,16,50,6.70
2015,01,16,16,51,6.70
2015,01,16,16,52,6.60
2015,01,16,16,53,6.60
2015,01,16,16,54,6.60
2015,01,16,16,55,6.60
2015,01,16,16,56,6.50
2015,01,16,16,57,6.50
2015,01,16,16,58,6.50
2015,01,16,16,59,6.50
2015,01,16,17,00,6.40
2015,01,16,17,01,6.40
2015,01,16,17,02,6.40
2015,01,16,17,03,6.30
2015,01,16,17,04,6.30
2015,01,16,17,05,6.30
2015,01,16,17,06,6.30
2015,01,16,17,07,6.20
2015,01,16,17,08,6.20
2015,01,16,17,09,6.20
2015,01,16,17,10,6.20
2015,01,16,17,11,6.10
2015,01,16,17,12,6.10
2015,01,16,17,13,6.10
2015,01,16,17,14,6.00
2015,01,16,17,15,6.00
2015,01,16,17,16,6.00
2015,01,16,17,17,5.90
2015,01,16,17,18,5.90
2015,01,16,17,19,5.90
2015,01,16,17,20,5.80
2015,01,16,17,21,5.80
2015,01,16,17,22,5.80
2015,01,16,17,23,5.80
2015,01,16,17,24,5.70
2015,01,16,17,25,5.70
2015,01,16,17,26,5.70
2015,01,16,17,27,5.70
2015,01,16,17,28,5.60
2015,01,16,17,29,5.60
2015,01,16,17,30,5.60
2015,01,16,17,31,5.60
2015,01,16,17,32,5.50
2015,01,16,17,33,5.50
2015,01,16,17,34,5.50
2015,01,16,17,35,5.40
2015,01,16,17,36,5.40
2015,01,16,17,37,5.40
2015,01,16,17,38,5.40
2015,01,16,17,39,5.30
2015,01,16,17,40,5.30
2015,01,16,17,41,5.30
2015,01,16,17,42,5.30
2015,01,16,17,43,5.30
2015,01,16,17,44,5.30
2015,01,16,17,45,5.20
2015,01,16,17,46,5.20
2015,01,16,17,47,5.20
2015,01,16,17,48,5.20
2015,01,16,17,49,5.20
2015,01,16,17,50,5.20
2015,01,16,17,51,5.10
2015,01,16,17,52,5.10
2015,01,16,17,53,5.10
2015,01,16,17,54,5.10
2015,01,16,17,55,5.10
2015,01,16,17,56,5.00
2015,01,16,17,57,5.00
2015,01,16,17,58,5.00
2015,01,16,17,59,4.90
2015,01,16,18,00,4.90
2015,01,16,18,01,4.90
2015,01,16,18,02,4.90
2015,01,16,18,03,4.80
2015,01,16,18,04,4.80
2015,01,16,18,05,4.80
2015,01,16,18,06,4.80